Roseburg, OR

9:29 AM PDT on June 23, 2017 (GMT -0700)
Roseburg Regional

Weather History for KRBG - March, 2014

Change the Weather History Date:

Tuesday, March 4, 2014

  Actual Average Record
Temperature  
Mean Temperature 56 °F 47 °F  
Max Temperature 66 °F 56 °F 73 °F (1937)
Min Temperature 45 °F 38 °F 24 °F (1955)
Degree Days  
Heating Degree Days 9 18  
Month to date heating degree days 38 72  
Since 1 July heating degree days 2965 2941  
Cooling Degree Days 0 0  
Month to date cooling degree days 0 0  
Year to date cooling degree days 0 0  
Growing Degree Days 6 (Base 50)    
Moisture  
Dew Point 47 °F    
Average Humidity 71    
Maximum Humidity 93    
Minimum Humidity 48    
Precipitation  
Precipitation T in 0.09 in 1.12 in (1956)
Month to date precipitation 0.45 0.40  
Year to date precipitation 7.90 9.44  
Sea Level Pressure  
Sea Level Pressure 30.01 in    
Wind  
Wind Speed 2 mph (SSW)    
Max Wind Speed 9 mph    
Max Gust Speed 13 mph    
Visibility 7 miles    
Events Fog , Rain    
T = Trace of Precipitation, MM = Missing Value Source: NWS Daily Summary

Daily Weather History Graph

Daily Weather History Graph

Search for Another Location

Airport or City:

Trip Planner

Search our weather history database for the weather conditions in past years. The results will help you decide how hot, cold, wet, or windy it might be!

Date:

Astronomy

Mar. 04, 2014 Rise Set
Actual Time 6:44 AM PST 6:06 PM PST
Civil Twilight 6:15 AM PST 6:34 PM PST
Nautical Twilight 5:43 AM PST 7:07 PM PST
Astronomical Twilight 5:09 AM PST 7:41 PM PST
Moon 8:27 AM PST (3/4) 10:27 PM PST (3/4)
Length of Visible Light 12h 19m
Length of Day
11h 22m
Waxing Crescent, 15% of the Moon is Illuminated
Mar 4
Waxing Crescent
Mar 8
First Quarter
Mar 16
Full
Mar 23
Last Quarter
Mar 30
New

Hourly Weather History & Observations

Time (PST) Temp. Dew Point Humidity Pressure Visibility Wind Dir Wind Speed Gust Speed Precip Events Conditions
12:31 AM 46.0 °F 43.0 °F 89% 30.02 in 8.0 mi Calm Calm - N/A   Scattered Clouds
12:39 AM 46.0 °F 43.0 °F 89% 30.02 in 5.0 mi Calm Calm - N/A   Mostly Cloudy
12:53 AM 46.0 °F 44.1 °F 93% 30.03 in 9.0 mi Calm Calm - N/A   Overcast
1:53 AM 48.0 °F 45.0 °F 89% 30.03 in 10.0 mi Calm Calm - N/A   Overcast
2:53 AM 48.0 °F 45.0 °F 89% 30.04 in 4.0 mi Calm Calm - N/A   Overcast
3:05 AM 48.0 °F 45.0 °F 89% 30.04 in 2.5 mi Calm Calm - N/A   Overcast
3:29 AM 48.0 °F 46.0 °F 93% 30.04 in 1.5 mi Calm Calm - N/A   Overcast
3:39 AM 48.0 °F 46.0 °F 93% 30.03 in 0.5 mi Calm Calm - N/A Fog Fog
3:53 AM 48.0 °F 46.0 °F 93% 30.04 in 0.5 mi Calm Calm - N/A Fog Fog
4:42 AM 48.0 °F 46.0 °F 93% 30.03 in 0.2 mi South 3.5 mph - N/A Fog Fog
4:53 AM 48.0 °F 46.0 °F 93% 30.03 in 0.5 mi SSE 4.6 mph - N/A Fog Fog
5:06 AM 48.0 °F 46.0 °F 93% 30.04 in 1.5 mi Calm Calm - N/A   Overcast
5:17 AM 48.0 °F 46.0 °F 93% 30.04 in 3.0 mi Calm Calm - N/A   Overcast
5:53 AM 48.0 °F 46.0 °F 93% 30.06 in 9.0 mi Calm Calm - N/A   Overcast
6:27 AM 48.0 °F 46.0 °F 93% 30.07 in 1.8 mi Calm Calm - N/A   Overcast
6:53 AM 48.0 °F 46.0 °F 93% 30.07 in 1.5 mi Calm Calm - N/A   Overcast
6:57 AM 48.9 °F 46.0 °F 90% 30.07 in 3.0 mi Calm Calm - N/A   Overcast
7:53 AM 48.0 °F 46.0 °F 93% 30.07 in 5.0 mi Calm Calm - N/A   Overcast
8:53 AM 48.9 °F 46.0 °F 90% 30.08 in 10.0 mi SW 3.5 mph - N/A   Overcast
9:53 AM 50.0 °F 46.0 °F 86% 30.08 in 10.0 mi Calm Calm - N/A   Overcast
10:02 AM 50.0 °F 46.0 °F 86% 30.07 in 10.0 mi Calm Calm - N/A   Overcast
10:53 AM 55.0 °F 48.0 °F 77% 30.06 in 10.0 mi Calm Calm - N/A   Partly Cloudy
11:53 AM 59.0 °F 48.9 °F 69% 30.04 in 10.0 mi Calm Calm - N/A   Clear
12:53 PM 63.0 °F 48.9 °F 60% 30.01 in 10.0 mi West 3.5 mph - N/A   Clear
1:53 PM 64.9 °F 46.9 °F 52% 29.98 in 10.0 mi SSW 5.8 mph - N/A   Clear
2:53 PM 66.0 °F 46.0 °F 48% 29.97 in 10.0 mi SSW 5.8 mph - N/A   Clear
3:53 PM 64.9 °F 46.0 °F 50% 29.97 in 10.0 mi WSW 4.6 mph - N/A   Clear
4:53 PM 64.9 °F 46.0 °F 50% 29.96 in 10.0 mi Calm Calm - N/A   Clear
5:53 PM 63.0 °F 46.0 °F 54% 29.93 in 10.0 mi ESE 3.5 mph - N/A   Clear
6:53 PM 60.1 °F 48.9 °F 67% 29.92 in 10.0 mi SE 3.5 mph - N/A   Clear
7:53 PM 57.9 °F 48.9 °F 72% 29.94 in 10.0 mi SSW 3.5 mph - N/A   Clear
8:53 PM 57.0 °F 48.9 °F 74% 29.94 in 10.0 mi Calm Calm - N/A   Overcast
9:53 PM 55.9 °F 50.0 °F 80% 29.92 in 8.0 mi Calm Calm - 0.00 in Rain Light Rain
10:53 PM 55.0 °F 50.0 °F 83% 29.91 in 10.0 mi Calm Calm - 0.00 in   Overcast
11:53 PM 55.0 °F 51.1 °F 86% 29.89 in 10.0 mi Calm Calm - N/A   Overcast